User: anonymous
Location: Churchill
(58.7670°N, 94.1670°W)
Time: 20:39:10
(UTC-05:00)
Language:

Cosmos 2142 Rocket - Orbit

View from above orbital plane
View from above orbital plane
View from above satellite
View from above satellite

Ground track
Ground track

The orbit data is extracted from the following two-line orbital elements,

1 21231U 91029B   14259.27155623  .00000089  00000-0  76195-4 0  5560
2 21231 082.9517 133.0051 0035869 155.0382 340.2123 13.75631593175619
Epoch (UTC): 16 September 2014 06:31:02
Eccentricity: 0.0035869
inclination: 82.9517°
perigee height: 953 km
apogee height: 1006 km
right ascension of ascending node: 133.0051°
argument of perigee: 155.0382°
revolutions per day: 13.75631593
mean anomaly at epoch: 340.2123°
orbit number at epoch: 17561

The dashed part of the orbit path shows where the satellite is in the earth's shadow,  

DLR